STARLINK-11172, 60193

Orbit data source: Space-Track

STARLINK-11172, 60193 is a payload satellite owned by SpaceX/Seattle (US) in LEO that was launched on Wed, 03 Jul 2024 UTC via an FALCON 9 launch vehicle from the Air Force Eastern Test Range (AFETR). Payload-class satellites include a variety of spacecraft equipped with specific instruments for various scientific and technological missions. These include communications satellites like Starlink; space stations such as the ISS; scientific satellites like the Hubble; Earth observation satellites from companies like Planet Labs, Umbra, and HawkEye 360; GPS; miniature CubeSats for education and research; and military/defense satellites.

Loading next visibility...
Identifier
60193, 2024-124L
Orbit
LEO
Last TLE update
18 hours ago
Origin
Manufacturer
SpaceX/Seattle
Mission
Operational Commercial Communications
Bus & Motor
STARLINK V2M, Unknown motor
Mass
730 kg wet, ~700 kg dry
Launch date (UTC)
2024-07-03 (1 year ago)
Launch vehicle
FALCON 9
Launch site
Air Force Eastern Test Range (AFETR)
Object type
Payload
Rocket body
Debris
Shape & HBR
Box + 2 Pan, 29 m
Radar Cross Section
36.964 m², Large (>1 m²)

Expand to show TLE details & history

TLE from 18 hours ago
0 STARLINK-11172
1 60193U 24124L   25181.69131172  .00000798  00000-0  11437-4 0  9993
2 60193  53.1585 323.6059 0000937  79.7545 280.3578 15.69715543 56956
Epoch: 2025-06-30T16:35Z
TLE epoch observation values (Epoch: 2025-06-30T16:35:29.332Z)
Latitude
-0.00007°
Longitude
155.73615°
Altitude
360.512 km
Speed
7.694 km/s
True Right ascension
21h 34m 25s
True Declination
0° 00' 00"
Sunlit
Object was in full shadow at epoch
Visualization orbit readout
Latitude
-1.79268°
Longitude
-26.54005°
Altitude
360.979 km
Speed
7.694 km/s
Apparent Right ascension
09h 35m 11s
Apparent Declination
-20° 13' 20"
Sunlit
Object is in daylight
Visualization observer readout
Local Sidereal Time
21:48:45
Azimuth
9.388° NNE
Elevation
-70.093°
Doppler factor
1
Orbital elements
Apogee altitude
360.603 km
Perigee altitude
359.34 km
Semi-major axis
6,738.109 km
Eccentricity
0.00009
Inclination
53.1585°
RAAN
323.6059°
Arg. of periapsis
79.7545°
True anomaly
Unknown
Mean anomaly
280.3578°
Eccentric anomaly
Unknown
Mean motion
3.92406 °/min
Orbital period
91.74 mins
BSTAR
0.000011437
Loading maneuver chart data...
Loading SW <> Apogee altitude chart data...
Loading historical data...
Loading historical data...
Loading historical data...
Loading historical data...
Loading historical data...
Loading historical data...
Loading historical data...

STARLINK-11172 Visibility forecast

Observer location: undefined°, undefined°

Span
Click to sort rows by Start time (UTC) header in descending order
Start Az.
Max El. time (UTC)
Max El. Az.
Max El.
End time (UTC)
End Az.
4 mins2025-07-01 12:40:21.351Z261.473° W2025-07-01 12:42:21.351Z348.176° N32.806°2025-07-01 12:44:21.351Z35.251° NE
4 mins2025-07-01 19:05:21.351Z299.742° NW2025-07-01 19:06:21.351Z270.785° WNW41.413°2025-07-01 19:09:21.351Z138.261° SSE
|